Time,TemperatureF,DewpointF,PressureIn,WindDirection,WindDirectionDegrees,WindSpeedMPH,WindSpeedGustMPH,Humidity,HourlyPrecipIn,Conditions,Clouds,dailyrainin,SoftwareType,DateUTC
2013-02-26 00:00:00,15.0,-99.9,-100.00,North,-999,-999.0,-999.0,-999,-99.99,,,-99.99,,2013-02-26 07:00:00,
2013-02-26 00:52:00,15.0,-99.9,-100.00,North,-999,-999.0,-999.0,-999,-99.99,,,-99.99,,2013-02-26 07:52:00,
2013-02-26 01:00:00,15.0,9.0,-100.00,North,-999,-999.0,-999.0,77,-99.99,,,-99.99,,2013-02-26 08:00:00,
2013-02-26 01:52:00,15.0,9.0,-100.00,North,-999,-999.0,-999.0,77,-99.99,,,-99.99,,2013-02-26 08:52:00,
2013-02-26 02:00:00,14.0,8.0,-100.00,North,-999,-999.0,-999.0,77,-99.99,,,-99.99,,2013-02-26 09:00:00,
2013-02-26 02:52:00,14.0,8.0,-100.00,North,-999,-999.0,-999.0,77,-99.99,,,-99.99,,2013-02-26 09:52:00,
2013-02-26 03:00:00,14.0,8.0,-100.00,North,-999,-999.0,-999.0,77,-99.99,,,-99.99,,2013-02-26 10:00:00,
2013-02-26 03:52:00,14.0,8.0,-100.00,North,-999,-999.0,-999.0,77,-99.99,,,-99.99,,2013-02-26 10:52:00,
2013-02-26 04:00:00,13.0,7.0,-100.00,North,-999,-999.0,-999.0,78,-99.99,,,0.01,,2013-02-26 11:00:00,
2013-02-26 04:52:00,13.0,7.0,-100.00,North,-999,-999.0,-999.0,78,-99.99,,,0.01,,2013-02-26 11:52:00,
2013-02-26 05:00:00,11.0,5.0,-100.00,North,-999,-999.0,-999.0,77,-99.99,,,0.01,,2013-02-26 12:00:00,
2013-02-26 05:53:00,11.0,5.0,-100.00,North,-999,-999.0,-999.0,77,-99.99,,,0.01,,2013-02-26 12:53:00,
2013-02-26 06:00:00,11.0,5.0,-100.00,North,-999,-999.0,-999.0,77,-99.99,,,0.00,,2013-02-26 13:00:00,
2013-02-26 06:52:00,11.0,5.0,-100.00,North,-999,-999.0,-999.0,77,-99.99,,,0.00,,2013-02-26 13:52:00,
2013-02-26 07:00:00,11.0,6.0,-100.00,North,-999,-999.0,-999.0,77,-99.99,,,0.00,,2013-02-26 14:00:00,
2013-02-26 07:52:00,11.0,6.0,-100.00,North,-999,-999.0,-999.0,77,-99.99,,,0.00,,2013-02-26 14:52:00,
2013-02-26 08:00:00,13.0,7.0,-100.00,North,-999,-999.0,-999.0,77,-99.99,,,0.00,,2013-02-26 15:00:00,
2013-02-26 08:52:00,13.0,7.0,-100.00,North,-999,-999.0,-999.0,77,-99.99,,,0.00,,2013-02-26 15:52:00,
2013-02-26 09:00:00,15.0,9.0,-100.00,North,-999,-999.0,-999.0,77,-99.99,,,0.00,,2013-02-26 16:00:00,
2013-02-26 09:52:00,15.0,9.0,-100.00,North,-999,-999.0,-999.0,77,-99.99,,,0.00,,2013-02-26 16:52:00,
2013-02-26 10:00:00,19.0,13.0,-100.00,North,-999,-999.0,-999.0,77,-99.99,,,0.00,,2013-02-26 17:00:00,
2013-02-26 10:52:00,19.0,13.0,-100.00,North,-999,-999.0,-999.0,77,-99.99,,,0.00,,2013-02-26 17:52:00,
2013-02-26 11:00:00,20.0,14.0,-100.00,North,-999,-999.0,-999.0,77,-99.99,,,0.00,,2013-02-26 18:00:00,
2013-02-26 11:52:00,20.0,14.0,-100.00,North,-999,-999.0,-999.0,77,-99.99,,,0.00,,2013-02-26 18:52:00,
2013-02-26 12:00:00,21.0,-99.9,-100.00,North,-999,-999.0,-999.0,-999,-99.99,,,0.00,,2013-02-26 19:00:00,
2013-02-26 12:52:00,21.0,-99.9,-100.00,North,-999,-999.0,-999.0,-999,-99.99,,,0.00,,2013-02-26 19:52:00,
2013-02-26 14:00:00,19.0,13.0,-100.00,North,-999,-999.0,-999.0,77,-99.99,,,0.00,,2013-02-26 21:00:00,
2013-02-26 14:51:00,19.0,13.0,-100.00,North,-999,-999.0,-999.0,77,-99.99,,,0.00,,2013-02-26 21:51:00,
2013-02-26 15:00:00,18.0,13.0,-100.00,North,-999,-999.0,-999.0,77,-99.99,,,0.00,,2013-02-26 22:00:00,
2013-02-26 16:00:00,18.0,12.0,-100.00,North,-999,-999.0,-999.0,77,-99.99,,,0.00,,2013-02-26 23:00:00,
2013-02-26 16:52:00,18.0,12.0,-100.00,North,-999,-999.0,-999.0,77,-99.99,,,0.00,,2013-02-26 23:52:00,
2013-02-26 17:00:00,16.0,10.0,-100.00,North,-999,-999.0,-999.0,77,-99.99,,,-99.99,,2013-02-27 00:00:00,
2013-02-26 18:00:00,14.0,-99.9,-100.00,North,-999,-999.0,-999.0,-999,-99.99,,,0.00,,2013-02-27 01:00:00,
2013-02-26 18:52:00,14.0,-99.9,-100.00,North,-999,-999.0,-999.0,-999,-99.99,,,0.00,,2013-02-27 01:52:00,
2013-02-26 19:00:00,13.0,7.0,-100.00,North,-999,-999.0,-999.0,77,-99.99,,,0.00,,2013-02-27 02:00:00,
2013-02-26 19:52:00,13.0,7.0,-100.00,North,-999,-999.0,-999.0,77,-99.99,,,0.00,,2013-02-27 02:52:00,
2013-02-26 20:00:00,9.0,4.0,-100.00,North,-999,-999.0,-999.0,78,-99.99,,,0.00,,2013-02-27 03:00:00,
2013-02-26 20:52:00,9.0,4.0,-100.00,North,-999,-999.0,-999.0,78,-99.99,,,0.00,,2013-02-27 03:52:00,
2013-02-26 21:00:00,8.0,2.0,-100.00,North,-999,-999.0,-999.0,77,-99.99,,,0.00,,2013-02-27 04:00:00,
2013-02-26 21:52:00,8.0,2.0,-100.00,North,-999,-999.0,-999.0,77,-99.99,,,0.00,,2013-02-27 04:52:00,
2013-02-26 22:00:00,8.0,3.0,-100.00,North,-999,-999.0,-999.0,77,-99.99,,,0.00,,2013-02-27 05:00:00,
2013-02-26 22:52:00,8.0,3.0,-100.00,North,-999,-999.0,-999.0,77,-99.99,,,0.00,,2013-02-27 05:52:00,
2013-02-26 23:00:00,5.0,-1.0,-100.00,North,-999,-999.0,-999.0,77,-99.99,,,0.00,,2013-02-27 06:00:00,
2013-02-26 23:52:00,5.0,-1.0,-100.00,North,-999,-999.0,-999.0,77,-99.99,,,0.00,,2013-02-27 06:52:00,